Regional Weather Roundup
Issued by NWS Upton, NY

Current Version | Previous Version | Graphics & Text | Print | Product List | Glossary Off
Versions: 1 2 3 4 5 6 7 8 9 10 11 12 13 14 15 16 17 18 19 20 21 22 23 24 25 26 27 28 29 30 31 32 33 34 35 36 37 38 39 40 41 42 43 44 45 46 47 48 49 50

633
ASUS41 KOKX 290604
RWROKX

REGIONAL WEATHER ROUNDUP
NATIONAL WEATHER SERVICE NEW YORK NY
200 AM EDT FRI APR 29 2016

NOTE: "FAIR" INDICATES FEW OR NO CLOUDS BELOW 12,000 FEET WITH NO
SIGNIFICANT WEATHER AND/OR OBSTRUCTIONS TO VISIBILITY.

NYZ071-072-176-178-NJZ106-104-290700-
NEW YORK CITY METRO AREA


CITY           SKY/WX    TMP DP  RH WIND       PRES   REMARKS
CENTRAL PARK   CLOUDY    49  39  68 CALM      30.07F
LAGUARDIA APRT CLOUDY    50  37  61 CALM      30.05F
KENNEDY INTL   CLOUDY    49  37  63 CALM      30.06F
NEWARK/LIBERTY CLOUDY    49  37  63 VRB3      30.05F
BRNX BOT. GARD   N/A     48  36  61 E1        30.06R
TETERBORO      CLOUDY    49  37  63 CALM      30.04F
$$

NYZ177-179-078>081-290700-
LONG ISLAND NEW YORK

CITY           SKY/WX    TMP DP  RH WIND       PRES   REMARKS
FARMINGDALE    CLOUDY    49  38  65 NE5       30.05F
ISLIP          CLOUDY    48  37  65 E5        30.05F
SHIRLEY        CLOUDY    47  38  71 CALM      30.07S
RIVERHEAD        N/A     46  37  71 CALM      30.07S
WESTHAMPTON    CLOUDY    44  35  70 SE3       30.08S
EAST HAMPTON   CLOUDY    46  36  68 E5        30.07S
MONTAUK POINT    N/A     46  38  73 E5        30.08F
$$

NYZ052-065-067-290700-
HUDSON VALLEY

CITY           SKY/WX    TMP DP  RH WIND       PRES   REMARKS
WHITE PLAINS   CLOUDY    46  36  68 E5        30.04F
NEWBURGH       CLOUDY    48  41  76 CALM      30.05S
MONTGOMERY     CLOUDY    48  42  80 CALM      30.03F
POUGHKEEPSIE   CLOUDY    51  39  63 CALM      30.04S
ALBANY         MOCLDY    40  18  41 N10       30.09S WCI  33
$$

NJZ001-105-106-008-010-013-015-019>022-104-290700-
NEW JERSEY

CITY           SKY/WX    TMP DP  RH WIND       PRES   REMARKS
NEWARK/LIBERTY CLOUDY    49  37  63 VRB3      30.05F
TETERBORO      CLOUDY    49  37  63 CALM      30.04F
CALDWELL       CLOUDY    47  39  74 CALM      30.05S
MORRISTOWN     CLOUDY    46  39  76 CALM      30.05F
SOMERVILLE     CLOUDY    46  40  79 CALM      30.03F
SUSSEX         CLOUDY    47  43  86 CALM      30.04F
ANDOVER          N/A     46  41  82 CALM      30.03F
TRENTON        CLOUDY    44  41  89 NE3       30.04F
MILLVILLE      CLOUDY    45  43  93 NE6       30.01F
ATLANTIC CITY  CLOUDY    46  44  93 NE9       30.01F FOG
WRIGHTSTOWN    CLOUDY    43  42  95 N7        30.02F
TOMS RIVER     CLOUDY    43  39  87 N5        30.04F
BELMAR         CLOUDY    44  43  96 N6        30.05F
$$

PAZ047>061-062-071-290700-
EASTERN PENNSYLVANIA

CITY           SKY/WX    TMP DP  RH WIND       PRES   REMARKS
PHILADELPHIA   CLOUDY    45  41  86 NE8       30.03F FOG
ALLENTOWN      CLOUDY    46  41  82 SE3       30.03F
SCRANTON       CLOUDY    45  43  93 CALM      30.01F
$$

CTZ002-004>006-009-010-012-RIZ004-006-007-MAZ004-011-015-290700-
SOUTHERN NEW ENGLAND
 IN CT

CITY           SKY/WX    TMP DP  RH WIND       PRES   REMARKS
BRADLEY INTL   CLOUDY    46  36  68 SE6       30.07R
HARTFORD       CLOUDY    48  39  71 SE3       30.08S
DANBURY        CLOUDY    46  39  76 CALM      30.06F
WTRBRY/OXFORD    N/A     43  37  81 SE5       30.06F
BRIDGEPORT     CLOUDY    48  38  68 SE6       30.07F
MERIDEN        CLOUDY    45  42  89 CALM      30.07F
NEW HAVEN      CLOUDY    46  39  76 CALM      30.07F
CHESTER        CLOUDY    45  41  87 CALM      30.07F
GROTON         CLOUDY    47  40  76 E7        30.08S
WILLIMANTIC    CLOUDY    46  36  68 CALM      30.09R

 IN RI

CITY           SKY/WX    TMP DP  RH WIND       PRES   REMARKS
PROVIDENCE     CLOUDY    45  36  70 CALM      30.10S
BLOCK ISLAND   LGT RAIN  45  37  73 E7        30.08F
WESTERLY       CLOUDY    47  36  65 E3        30.09S

 IN MA

CITY           SKY/WX    TMP DP  RH WIND       PRES   REMARKS
BOSTON         CLOUDY    45  34  65 SE7       30.11S
WORCESTER      CLOUDY    42  31  64 S5        30.07S
WESTFIELD      CLOUDY    46  36  68 SE5       30.07S
PROVINCETOWN   CLOUDY    43  35  73 SE5       30.11F
NANTUCKET      CLOUDY    45  35  68 E6        30.09F
$$

ANZ330-335-338-340-345-350-353-355-290700-
COASTAL MARINE OBSERVATIONS


STATION/POSITION TIME  SKY/WX   TEMP    WIND        PRES    VSBY  WAVE
                                AIR SEA DIR/SP/G                  HT/PER
                 (UTC)          (F)     (DEG/KT/KT) (MB)    (MI)  (FT/S)
NY HARB ENTRANCE 0450            47 51  120/  4/  4 1017.6          2/ 6
20S FIRE ISLAND  0450            47 49   90/  8/  8 1017.5          3/ 6
GREAT SOUTH BAY  0500            49 58   90/  8/ 10   N/A
23 SSW MONTAUK P 0550            46 47  100/ 12/ 12 1017.2          3/ 4
15 E BARNEGAT LI 0522               51                N/A           4/ 6
HUDSON CANYON    0450            49 49              1015.7          4/ 6
KINGS POINT      0500            49 53              1017.7
EXECUTION ROCKS  NOT AVBL
CENTRAL LI SOUND 0500            48     120/  8/ 10   N/A           1
EASTERN LI SOUND 0500            47 47  120/ 10/ 10   N/A
ROBBINS REEF     0512            48     100/  5/  6 1016.9
$$


>>>>>>>>>>>>>>>>>>>>>>>>>>>> KEY <<<<<<<<<<<<<<<<<<<<<<<<<<<
>                                                          <
>     SKY/WX - SKY CONDITION/PRESENT WEATHER               <
>     TMP    - TEMPERATURE IN FAHRENHEIT                   <
>     DP     - DEWPOINT IN FAHRENHEIT                      <
>     RH     - RELATIVE HUMIDITY IN PERCENT                <
>     WIND   - DIRECTION AND SPEED IN MPH                  <
>     PRES   - MEAN SEA LEVEL PRESSURE IN INCHES OF HG     <
>     WCI    - WIND CHILL INDEX                            <
>     VSB    - VISIBILITY IN MILES                         <
>     HX     - HEAT INDEX                                  <
>     TC     - TEMPERATURE IN CELSIUS                      <
>     VRB    - VARIABLE WIND DIRECTION                     <
>                                                          <
>>>>>>>>>>>>>>>>>>>>>>>>>>>> KEY <<<<<<<<<<<<<<<<<<<<<<<<<<<






USA.gov is the U.S. government's official web portal to all federal, state and local government web resources and services.